Flag for U.S.A. Weather past 2 weeks in St. Croix Falls, Wisconsin, U.S.A.

39 °F


Feels Like: 39 °F
Forecast: 38 / 60 °F
Wind: No wind

Location: L O Simenstad Municipal Airport

Current Time: Oct 7, 2015 at 4:08:52 AM

Latest Report: Oct 7, 2015 at 3:35 AM

Visibility: 10 mi

Pressure: 30.22 "Hg

Humidity: 100%

Dew point: 39 °F

Location of St. Croix FallsLocation

Historic Weather in St. Croix Falls — Graph


St. Croix Falls temperature yesterday

Maximum temperature yesterday: 70 °F (at 3:15 PM)
Minimum temperature yesterday: 50 °F (at 11:55 PM)
Average temperature yesterday: 58 °F

Past Weeks' High & Low Weather Summary

High81 °F (Sep 27, 4:15 PM)100% (Sep 22, 6:35 AM)30.59 "Hg (Sep 22, 6:35 AM)
Low35 °F (Sep 30, 7:15 AM)33% (Oct 1, 2:15 PM)29.85 "Hg (Sep 27, 4:35 PM)
Average57 °F77%30.25 "Hg
* Reported Sep 22 2:15 AM — Oct 7 2:55 AM, St. Croix Falls, Weather by CustomWeather, © 2015

Note: Actual official high and low records may vary slightly from our data, if they occured in-between our weather recording intervals... More about our weather records


St. Croix Falls weather history for previous 24 hours

Time TempWeatherWind HumidityBarometerVisibility
2:55 AM
Wed, Oct 7
39 °FClear.No wind100%30.21 "Hg10 mi
2:35 AM40 °FClear.No wind100%30.21 "Hg10 mi
2:15 AM41 °FClear.No wind100%30.21 "Hg10 mi
1:55 AM42 °FClear.No wind100%30.21 "Hg10 mi
1:35 AM42 °FClear.No wind88%30.20 "Hg10 mi
1:15 AM46 °FClear.No wind83%30.20 "Hg10 mi
12:55 AM48 °FClear.5 mph79%30.20 "Hg10 mi
12:35 AM49 °FClear.3 mph76%30.20 "Hg10 mi
12:15 AM49 °FClear.3 mph74%30.20 "Hg10 mi
11:55 PM
Tue, Oct 6
50 °FClear.5 mph74%30.19 "Hg10 mi
11:15 PM52 °FClear.5 mph74%30.18 "Hg10 mi
10:55 PM53 °FClear.5 mph72%30.17 "Hg10 mi
10:15 PM54 °FClear.5 mph69%30.16 "Hg10 mi
9:55 PM55 °FClear.3 mph67%30.15 "Hg10 mi
9:15 PM57 °FClear.5 mph67%30.14 "Hg10 mi
8:55 PM57 °FClear.6 mph67%30.13 "Hg10 mi
8:15 PM58 °FClear.3 mph68%30.12 "Hg10 mi
7:55 PM60 °FClear.5 mph65%30.12 "Hg10 mi
7:35 PM62 °FSunny.7 mph62%30.12 "Hg10 mi
7:15 PM61 °FSunny.6 mph68%30.11 "Hg10 mi
6:55 PM62 °FSunny.6 mph66%30.11 "Hg10 mi
6:35 PM63 °FSunny.6 mph65%30.11 "Hg10 mi
6:15 PM65 °FSunny.5 mph62%30.11 "Hg10 mi
5:55 PM66 °FSunny.6 mph61%30.11 "Hg10 mi
5:15 PM68 °FSunny.7 mph56%30.11 "Hg10 mi
4:15 PM69 °FBroken clouds.8 mph52%30.11 "Hg10 mi
3:55 PM69 °FScattered clouds.9 mph53%30.11 "Hg10 mi
3:35 PM69 °FScattered clouds.8 mph53%30.11 "Hg10 mi
3:15 PM70 °FScattered clouds.7 mph50%30.11 "Hg10 mi
2:55 PM70 °FSunny.8 mph51%30.12 "Hg10 mi
2:35 PM70 °FScattered clouds.12 mph52%30.13 "Hg10 mi
2:15 PM69 °FScattered clouds.8 mph51%30.13 "Hg10 mi
1:55 PM69 °FScattered clouds.9 mph53%30.14 "Hg10 mi
1:15 PM67 °FScattered clouds.6 mph56%30.15 "Hg10 mi
12:55 PM67 °FPartly sunny.6 mph56%30.15 "Hg10 mi
12:35 PM65 °FPartly sunny.3 mph61%30.16 "Hg10 mi
12:15 PM65 °FMostly cloudy.5 mph62%30.16 "Hg10 mi
11:55 AM64 °FMore clouds than sun.No wind61%30.17 "Hg10 mi
11:35 AM62 °FBroken clouds.5 mph66%30.17 "Hg10 mi
11:15 AM61 °FMore clouds than sun.5 mph67%30.17 "Hg10 mi
10:55 AM60 °FMostly cloudy.6 mph69%30.17 "Hg10 mi
10:35 AM59 °FMostly cloudy.5 mph70%30.17 "Hg10 mi
10:15 AM57 °FMostly cloudy.No wind76%30.18 "Hg10 mi
9:55 AM56 °FOvercast.No wind81%30.18 "Hg10 mi
9:35 AM55 °FOvercast.No wind83%30.18 "Hg10 mi
9:15 AM54 °FOvercast.No wind84%30.18 "Hg10 mi
8:55 AM54 °FOvercast.No wind85%30.18 "Hg10 mi
8:35 AM54 °FOvercast.No wind86%30.17 "Hg10 mi
8:15 AM54 °FOvercast.No wind86%30.17 "Hg10 mi
7:55 AM53 °FOvercast.No wind88%30.16 "Hg10 mi
7:35 AM53 °FOvercast.No wind86%30.17 "Hg10 mi
7:15 AM53 °FOvercast.3 mph87%30.16 "Hg10 mi
6:55 AM53 °FOvercast.No wind86%30.16 "Hg10 mi
6:35 AM53 °FOvercast.5 mph85%30.16 "Hg10 mi
6:15 AM53 °FOvercast.No wind85%30.16 "Hg10 mi
5:55 AM53 °FOvercast.No wind85%30.16 "Hg10 mi
5:35 AM53 °FOvercast.3 mph85%30.16 "Hg10 mi
5:15 AM53 °FOvercast.No wind85%30.16 "Hg10 mi
4:55 AM53 °FOvercast.3 mph84%30.16 "Hg10 mi
4:35 AM53 °FOvercast.3 mph85%30.16 "Hg10 mi
4:15 AM53 °FOvercast.No wind83%30.16 "Hg10 mi
Weather by CustomWeather, © 2015

See weather overviewHow to use our weather pages